San Angelo, TX

3:10 AM CDT on June 26, 2017 (GMT -0500)
San Angelo Regional-Mathis

Weather History for KSJT - September, 2012

Change the Weather History Date:

Monday, September 17, 2012

  Actual Average Record
Temperature  
Mean Temperature 76 °F 75 °F  
Max Temperature 88 °F 87 °F 100 °F (1997)
Min Temperature 63 °F 63 °F 45 °F (1951)
Degree Days  
Heating Degree Days 0 0  
Month to date heating degree days 2 0  
Since 1 July heating degree days 2 0  
Cooling Degree Days 11 10  
Month to date cooling degree days 264 218  
Year to date cooling degree days 2896 2254  
Growing Degree Days 26 (Base 50)    
Moisture  
Dew Point 58 °F    
Average Humidity 57    
Maximum Humidity 87    
Minimum Humidity 26    
Precipitation  
Precipitation 0.00 in 0.07 in 4.64 in (1936)
Month to date precipitation 1.05 1.48  
Year to date precipitation 15.43 15.55  
Sea Level Pressure  
Sea Level Pressure 29.89 in    
Wind  
Wind Speed 5 mph (South)    
Max Wind Speed 13 mph    
Max Gust Speed 16 mph    
Visibility 10 miles    
Events      
T = Trace of Precipitation, MM = Missing Value Source: NWS Daily Summary

Daily Weather History Graph

Daily Weather History Graph

Search for Another Location

Airport or City:

Trip Planner

Search our weather history database for the weather conditions in past years. The results will help you decide how hot, cold, wet, or windy it might be!

Date:

Astronomy

Sep. 17, 2012 Rise Set
Actual Time 7:27 AM CDT 7:44 PM CDT
Civil Twilight 7:03 AM CDT 8:08 PM CDT
Nautical Twilight 6:34 AM CDT 8:37 PM CDT
Astronomical Twilight 6:06 AM CDT 9:05 PM CDT
Moon 9:07 AM CDT (9/17) 8:40 PM CDT (9/17)
Length of Visible Light 13h 05m
Length of Day
12h 16m
Waxing Crescent, 3% of the Moon is Illuminated
Sep 17
Waxing Crescent
Sep 22
First Quarter
Sep 29
Full
Oct 8
Last Quarter
Oct 15
New

Hourly Weather History & Observations

Time (CDT) Temp. Heat Index Dew Point Humidity Pressure Visibility Wind Dir Wind Speed Gust Speed Precip Events Conditions
12:51 AM 66.0 °F - 61.0 °F 84% 29.94 in 10.0 mi South 10.4 mph - N/A   Clear
1:35 AM 66.2 °F - 60.8 °F 83% 29.98 in 10.0 mi South 10.4 mph - N/A   Scattered Clouds
1:43 AM 66.2 °F - 60.8 °F 83% 29.98 in 10.0 mi South 10.4 mph - N/A   Mostly Cloudy
1:51 AM 66.0 °F - 61.0 °F 84% 29.93 in 10.0 mi South 10.4 mph - N/A   Mostly Cloudy
2:40 AM 66.2 °F - 60.8 °F 83% 29.97 in 10.0 mi South 5.8 mph - N/A   Scattered Clouds
2:51 AM 64.9 °F - 61.0 °F 87% 29.92 in 10.0 mi South 5.8 mph - N/A   Clear
3:51 AM 64.0 °F - 59.0 °F 84% 29.89 in 10.0 mi SW 4.6 mph - N/A   Clear
4:27 AM 62.6 °F - 59.0 °F 88% 29.94 in 10.0 mi SW 4.6 mph - N/A   Scattered Clouds
4:36 AM 62.6 °F - 59.0 °F 88% 29.93 in 10.0 mi SSW 3.5 mph - N/A   Mostly Cloudy
4:51 AM 64.0 °F - 60.1 °F 87% 29.88 in 10.0 mi SW 8.1 mph - N/A   Overcast
5:51 AM 66.0 °F - 61.0 °F 84% 29.88 in 10.0 mi SW 4.6 mph - N/A   Overcast
6:09 AM 66.2 °F - 60.8 °F 83% 29.93 in 10.0 mi SW 5.8 mph - N/A   Overcast
6:51 AM 66.9 °F - 61.0 °F 81% 29.88 in 10.0 mi SSW 8.1 mph - N/A   Overcast
7:51 AM 66.9 °F - 60.1 °F 79% 29.89 in 10.0 mi SW 8.1 mph - N/A   Overcast
8:51 AM 66.9 °F - 60.1 °F 79% 29.91 in 10.0 mi SW 4.6 mph - N/A   Overcast
9:51 AM 69.1 °F - 60.1 °F 73% 29.91 in 10.0 mi South 5.8 mph - N/A   Overcast
9:58 AM 69.8 °F - 60.8 °F 73% 29.95 in 10.0 mi WSW 6.9 mph - N/A   Overcast
10:51 AM 72.0 °F - 60.1 °F 66% 29.92 in 10.0 mi SW 8.1 mph - N/A   Mostly Cloudy
11:02 AM 71.6 °F - 60.8 °F 69% 29.96 in 10.0 mi SSW 4.6 mph - N/A   Scattered Clouds
11:51 AM 75.0 °F - 60.1 °F 60% 29.90 in 10.0 mi Variable 3.5 mph - N/A   Clear
12:51 PM 80.1 °F 80.7 °F 59.0 °F 48% 29.87 in 10.0 mi Calm Calm - N/A   Clear
1:51 PM 82.9 °F 82.1 °F 55.9 °F 39% 29.84 in 10.0 mi NNE 3.5 mph - N/A   Clear
2:51 PM 86.0 °F 84.0 °F 53.1 °F 32% 29.83 in 10.0 mi NNW 6.9 mph - N/A   Clear
3:51 PM 87.8 °F - 51.8 °F 29% 29.86 in 10.0 mi Variable 5.8 mph - N/A   Clear
4:51 PM 87.8 °F - 51.8 °F 29% 29.85 in 10.0 mi Calm Calm - N/A   Clear
5:51 PM 87.1 °F - 48.0 °F 26% 29.78 in 10.0 mi NE 6.9 mph - N/A   Clear
6:43 PM 86.0 °F - 48.2 °F 27% 29.84 in 2.0 mi Calm Calm - N/A   Haze
6:51 PM 84.9 °F - 51.1 °F 31% 29.78 in 10.0 mi East 5.8 mph - N/A   Clear
7:51 PM 81.0 °F 80.5 °F 54.0 °F 39% 29.80 in 10.0 mi East 4.6 mph - N/A   Clear
8:51 PM 77.0 °F - 55.9 °F 48% 29.82 in 10.0 mi ENE 5.8 mph - N/A   Clear
9:51 PM 73.0 °F - 55.0 °F 53% 29.85 in 10.0 mi ESE 3.5 mph - N/A   Clear
11:51 PM 71.1 °F - 53.1 °F 53% 29.88 in 10.0 mi East 3.5 mph - N/A   Clear